EHI
0 0 0 0 0 0 0 0 0 0 0 0 0 0 0 0 0 0 0 0 0 0 0 0 0 0 0 0 0 0 0 0 0 0 0 0 0 0 0 1 1 1 1 0
0 0 0 0 0 0 0 0 0 0 0 0 0 0 0 0 0 0 0 0 0 0 0 0 0 0 0 0 0 0 0 0 0 0 0 0 0 0 0 1 2 2 1 1
0 0 0 0 0 0 0 0 0 0 0 0 0 0 0 0 0 0 0 0 0 0 0 0 0 0 0 0 0 0 0 0 0 0 0 0 0 0 0 1 1 1 1 0
0 0 0 0 0 0 0 0 0 0 0 0 0 0 0 0 0 0 0 0 0 0 0 0 0 0 0 0 0 0 0 0 0 0 0 0 0 0 0 0 0 0 0 0
0 0 0 0 0 0 0 0 0 0 0 0 0 0 0 0 0 0 0 0 0 0 0 0 0 0 0 0 0 0 0 0 0 0 0 0 0 0 0 0 0 0 0 0
0 0 0 0 0 0 0 0 0 0 0 0 0 0 0 0 0 0 0 0 0 0 0 0 0 0 0 0 0 0 0 0 0 0 0 0 0 0 0 0 0 0 0 0
0 0 0 0 0 0 0 0 0 0 0 0 0 0 0 0 0 0 0 0 0 0 0 0 0 0 0 0 0 0 0 0 0 0 0 0 0 0 0 0 0 0 0 0
0 0 0 0 0 0 0 0 0 0 0 0 0 0 0 0 0 0 0 0 0 0 0 0 0 0 0 0 0 0 0 0 0 0 0 0 0 0 0 0 0 0 0 0
0 0 0 0 0 0 0 0 0 0 0 0 0 0 0 0 0 0 0 0 0 0 0 0 0 0 0 0 0 0 0 0 0 0 0 0 0 0 0 0 0 0 0 0
0 0 0 0 0 0 0 0 0 0 0 0 0 0 0 0 0 0 0 0 0 0 0 0 0 0 0 0 0 0 0 0 0 0 0 0 0 0 0 0 0 0 0 0
0 0 0 0 0 0 0 0 0 0 0 0 0 0 0 0 0 0 0 0 0 0 0 0 0 0 0 0 0 0 0 0 0 0 0 0 0 0 0 0 0 0 0 0
0 0 0 0 0 0 0 0 0 0 0 0 0 0 0 0 0 0 0 0 0 0 0 0 0 0 0 0 0 0 0 0 0 0 0 0 0 0 0 0 0 0 0 0
0 0 0 0 0 0 0 0 0 0 0 0 0 0 0 0 0 0 0 0 0 0 0 0 0 0 0 0 0 0 0 0 0 0 0 0 0 0 0 0 0 0 0 0
0 0 0 0 0 0 0 0 0 0 0 0 0 0 0 0 0 0 0 0 0 0 0 0 0 0 0 0 0 0 0 0 0 0 0 0 0 0 0 0 0 0 0 0
0 0 0 0 0 0 0 0 0 0 0 0 0 0 0 0 0 0 0 0 0 0 0 0 0 0 0 0 0 0 0 0 0 0 0 0 0 0 0 0 0 0 0 0
0 0 0 0 0 0 0 0 0 0 0 0 0 0 0 0 0 0 0 0 0 0 0 0 0 0 0 0 0 0 0 0 0 0 0 0 0 0 0 0 0 0 0 0
0 0 0 0 0 0 0 0 0 0 0 0 0 0 0 0 0 0 0 0 0 0 0 0 0 0 0 0 0 0 0 0 0 0 0 0 0 0 0 0 0 0 0 0
0 0 0 0 0 0 0 0 0 0 0 0 0 0 0 0 0 0 0 0 0 0 0 0 0 0 0 0 0 0 0 0 0 0 0 0 0 0 0 0 0 0 0 0
0 0 0 0 0 0 0 0 0 0 0 0 0 0 0 0 0 0 0 0 0 0 0 0 0 0 0 0 0 0 0 0 0 0 0 0 0 0 0 0 0 0 0 0
0 0 0 0 0 0 0 0 0 0 0 0 0 0 0 0 0 0 0 0 0 0 0 0 0 0 0 0 0 0 0 0 0 0 0 0 0 0 0 0 0 0 0 0
0 0 0 0 0 0 0 0 0 0 0 0 0 0 0 0 0 0 0 0 0 0 0 0 0 0 0 0 0 0 0 0 0 0 0 0 0 0 0 0 0 0 0 0
0 0 0 0 0 0 0 0 0 0 0 0 0 0 0 0 0 0 0 0 0 0 0 0 0 0 0 0 0 0 0 0 0 0 0 0 0 0 0 0 0 0 0 0
0 0 0 0 0 0 0 0 0 0 0 0 0 0 0 0 0 0 0 0 0 0 0 0 0 0 0 0 0 0 0 0 0 0 0 0 0 0 0 0 0 0 0 0
0 0 0 0 0 0 0 0 0 0 0 0 0 0 0 0 0 0 0 0 0 0 0 0 0 0 0 0 0 0 0 0 0 0 0 0 0 0 0 0 0 0 0 0
0 0 0 0 0 0 0 0 0 0 0 0 0 0 0 0 0 0 0 0 0 0 0 0 0 0 0 0 0 0 0 0 0 0 0 0 0 0 0 0 0 0 0 0
0 0 0 0 0 0 0 0 0 0 0 0 0 0 0 0 0 0 0 0 0 0 0 0 0 0 0 0 0 0 0 0 0 0 0 0 0 0 0 0 0 0 0 0
0 0 0 0 0 0 0 0 0 0 0 0 0 0 0 0 0 0 0 0 0 0 0 0 0 0 0 0 0 0 0 0 0 0 0 0 0 0 0 0 0 0 0 0
Wind_Speed
8 5 4 6 7 9 9 6 4 3 2 3 5 5 5 5 6 7 7 8 7 6 6 5 6 6 6 5 6 7 7 7 7 6 5 5 6 6 6 6 7 6 5 4
6 4 2 3 5 5 5 5 4 3 3 2 2 3 5 7 8 8 9 9 9 8 7 6 5 5 5 6 6 7 7 8 7 7 7 7 7 7 7 6 7 7 7 6
3 6 3 1 3 3 3 3 2 4 4 3 4 6 8 8 8 9 9 9 9 8 7 7 6 5 5 6 7 7 7 7 8 8 8 8 9 8 7 7 7 7 7 7
2 4 0 6 5 3 2 2 1 3 3 3 3 4 6 7 8 9 9 8 7 7 7 7 6 6 6 6 7 7 7 7 7 8 8 8 8 8 7 6 6 6 6 6
3 2 5 6 6 5 3 3 3 1 2 3 2 2 6 9 8 8 7 6 6 5 5 6 6 6 6 7 7 6 6 7 7 7 7 7 7 7 6 6 5 5 5 5
4 4 1 7 10 6 3 3 6 3 2 4 5 3 6 8 7 7 6 5 5 5 6 6 6 6 6 7 7 7 6 6 6 5 6 6 6 6 5 5 5 4 4 5
5 4 5 10 10 6 3 5 7 4 4 6 7 6 5 6 6 5 5 5 5 5 4 4 5 5 6 6 5 5 5 5 5 5 5 5 5 5 5 5 5 5 5 5
2 3 3 12 8 4 5 7 5 5 5 5 4 4 5 5 4 5 5 5 5 5 4 3 4 4 5 4 3 3 3 4 4 5 6 6 5 5 6 6 5 5 5 5
3 3 8 8 5 3 6 6 5 5 5 3 3 4 5 5 5 5 5 5 4 5 4 3 3 3 3 2 2 2 2 3 4 4 5 5 6 6 6 6 5 5 5 5
2 5 9 7 5 5 3 5 5 5 3 1 2 4 4 5 5 5 5 4 4 5 5 4 2 2 2 2 2 1 2 3 4 5 5 5 5 5 5 6 6 6 6 5
4 4 7 7 6 7 6 6 6 5 3 1 2 3 4 4 5 4 4 3 4 4 5 5 3 2 3 1 4 2 3 4 4 4 4 4 5 4 5 5 4 4 4 5
1 4 5 8 10 9 9 7 6 5 4 3 1 2 3 4 4 4 4 4 5 5 6 5 4 3 2 2 2 3 4 4 3 3 2 3 4 4 6 5 6 8 9 7
3 4 3 6 11 11 9 8 6 5 3 2 1 1 3 3 3 4 5 5 6 6 6 5 4 4 3 2 1 2 3 3 3 2 2 2 2 2 2 2 4 7 8 9
6 4 5 6 8 9 9 9 7 6 5 3 1 1 2 3 4 4 5 5 5 6 5 5 4 4 5 3 1 1 3 3 2 2 2 2 2 1 1 2 2 1 3 4
6 4 5 6 8 8 8 8 7 6 5 4 2 1 2 3 4 4 4 5 5 6 5 5 4 4 4 4 3 2 3 2 2 1 1 2 1 1 1 2 2 2 2 1
8 6 6 8 9 9 8 8 7 6 4 3 2 2 1 2 3 3 3 4 5 5 5 4 4 5 4 3 2 2 3 3 2 1 0 1 1 1 1 2 2 3 3 3
10 10 9 9 9 9 8 7 6 5 5 4 3 1 2 3 3 3 3 4 4 4 3 3 5 5 5 4 2 1 2 3 2 2 1 1 1 1 1 2 2 3 3 2
9 10 9 9 8 8 8 7 6 4 3 3 2 1 3 3 3 3 4 4 5 4 3 5 5 6 6 3 2 2 1 3 4 2 2 1 1 0 1 2 2 3 3 2
9 10 9 9 9 8 7 7 6 5 4 4 3 3 3 3 2 3 3 4 4 4 5 6 8 8 4 2 2 3 3 1 2 3 3 3 1 1 1 1 2 3 3 3
8 9 9 9 8 7 6 6 6 5 4 4 4 4 3 3 2 2 2 3 2 2 4 6 7 6 3 3 1 3 4 3 1 2 3 3 3 2 2 2 2 2 3 3
7 8 9 8 7 7 6 6 6 5 5 5 4 4 3 3 2 2 2 2 1 3 4 7 5 3 4 4 3 4 4 3 2 2 2 3 3 2 2 2 3 3 3 4
6 7 8 8 8 7 6 6 6 6 6 5 5 4 4 3 3 3 2 2 1 3 2 4 2 4 5 6 4 4 4 4 3 2 2 2 2 2 2 2 2 3 3 4
5 7 8 9 9 9 8 7 7 7 6 6 5 5 5 3 2 2 3 1 2 3 2 3 3 5 6 5 4 4 4 4 3 2 2 2 3 3 2 2 2 3 3 4
3 5 6 8 8 9 9 8 7 6 6 5 5 5 4 3 3 3 3 3 3 2 3 4 6 7 7 5 5 4 4 3 3 2 2 1 2 2 2 3 3 3 3 5
4 3 4 5 6 5 6 7 7 7 6 5 6 6 5 4 4 3 2 2 3 4 4 5 7 8 6 5 5 3 3 3 3 2 2 2 2 2 1 2 3 3 4 4
5 3 2 3 2 2 3 3 4 5 5 5 4 4 4 4 4 4 3 4 5 5 4 4 4 5 4 3 3 4 3 2 4 3 3 3 4 4 3 3 3 3 4 4
5 3 1 2 2 2 2 3 3 4 5 5 5 5 5 4 4 5 5 4 4 4 4 4 4 3 3 3 3 4 4 3 3 4 4 4 4 3 4 5 4 3 3 4
Wind_Direction
87 82 62 54 41 43 53 55 72 89 49 351 335 328 342 353 357 9 16 18 20 20 14 22 28 23 24 26 30 34 34 28 24 24 20 16 12 12 15 9 6 3 4 13
131 128 105 78 71 66 69 66 83 87 63 5 342 353 8 16 18 21 21 20 14 16 15 22 30 29 30 32 38 43 41 31 24 27 27 21 21 24 15 15 11 6 12 23
146 154 220 153 114 101 91 78 49 43 44 13 22 31 31 20 18 24 22 20 11 8 11 19 25 31 50 44 40 40 42 39 29 29 29 24 23 21 15 20 21 16 18 23
250 190 331 94 114 128 137 133 88 68 44 15 21 54 55 38 26 23 20 15 5 360 9 13 18 31 53 58 50 42 35 38 36 33 30 26 25 19 14 19 22 21 21 18
310 320 122 148 164 174 201 153 141 100 48 5 316 136 64 43 35 28 18 10 355 351 11 14 14 25 44 50 48 43 37 37 37 35 31 26 23 16 13 13 16 20 21 18
298 301 36 127 140 157 226 185 138 119 53 10 13 69 39 29 32 28 20 9 354 352 14 13 13 27 40 46 43 37 33 37 39 42 40 33 22 12 9 12 11 16 21 22
277 291 87 119 130 159 234 119 125 117 77 44 43 42 21 19 27 28 23 15 2 355 4 3 8 33 44 42 42 42 37 38 37 32 44 46 27 14 12 14 17 20 22 23
282 279 131 138 152 195 100 112 122 110 83 64 44 36 22 11 24 33 25 20 5 346 344 355 10 28 56 47 34 46 49 52 55 47 37 38 35 24 21 16 20 23 22 21
2 64 109 151 168 112 118 134 134 118 96 76 39 28 16 7 22 30 23 17 356 333 330 351 31 34 45 59 21 37 54 64 61 64 64 42 33 31 27 23 20 19 19 19
277 163 161 179 164 138 151 135 126 117 116 84 34 19 10 6 20 19 13 9 350 337 341 351 18 50 66 29 316 303 85 85 77 61 62 57 36 34 38 22 15 13 16 17
246 151 143 180 185 171 168 153 148 149 153 109 26 10 3 0 14 3 358 360 348 339 335 334 357 37 92 40 322 348 63 74 88 85 81 83 69 43 41 52 31 15 7 17
275 141 170 181 182 180 171 173 178 178 175 163 167 359 352 354 358 350 351 1 360 353 339 334 357 8 91 101 329 10 58 55 68 93 86 107 119 98 54 56 47 47 43 41
74 104 93 128 164 176 173 176 183 189 188 188 188 7 343 339 343 352 360 10 359 340 324 335 355 3 39 88 28 22 73 68 64 68 73 79 112 138 137 89 47 46 47 47
104 130 130 145 161 170 174 174 181 192 192 197 212 322 324 327 344 358 0 359 342 324 329 349 358 22 22 13 22 35 96 103 87 93 78 76 67 67 118 146 148 118 57 46
162 187 160 153 154 169 171 172 186 199 196 191 179 240 304 330 344 346 345 346 335 331 347 350 5 27 16 354 351 23 55 79 73 72 92 100 88 70 80 95 113 121 121 68
178 191 166 163 167 177 179 184 194 202 193 189 196 232 301 323 315 308 338 350 335 333 333 344 15 18 355 338 349 65 90 84 51 347 190 144 132 98 79 74 80 83 70 40
181 190 187 183 180 185 188 192 199 200 187 186 200 221 291 293 298 326 350 337 317 309 324 18 32 360 327 314 306 255 158 145 175 268 259 107 101 111 107 96 91 93 88 55
193 192 191 191 186 188 191 193 196 193 186 179 162 212 259 281 311 333 332 323 319 326 23 35 22 330 304 304 321 315 245 170 187 198 149 103 53 78 120 122 125 128 143 143
194 190 190 195 188 186 188 187 184 182 185 176 188 227 251 273 289 304 317 321 329 354 12 9 343 310 299 82 8 301 290 248 181 155 135 131 207 233 179 159 149 145 141 135
198 191 190 191 186 184 182 177 172 174 181 181 198 225 245 255 258 283 314 312 333 49 354 342 320 306 335 62 24 301 295 286 229 164 161 171 207 215 189 173 160 145 136 135
202 196 193 192 183 179 180 177 171 176 183 188 204 228 247 266 281 281 283 294 19 60 341 315 304 345 18 5 313 288 288 287 264 202 183 188 209 210 196 184 169 158 148 146
208 202 198 194 183 181 182 188 181 184 192 193 197 218 242 256 268 277 264 233 166 96 329 309 2 22 348 328 285 270 270 279 277 245 211 199 207 212 209 196 173 161 151 147
213 208 203 200 194 191 188 195 194 187 191 198 202 211 223 223 221 254 276 272 101 92 312 302 333 316 316 300 272 258 250 253 256 247 224 213 216 212 204 195 176 162 154 153
246 218 210 205 200 198 197 195 194 188 186 194 208 216 221 214 213 220 229 207 180 183 265 277 280 286 292 276 264 251 241 243 240 238 244 235 239 232 203 180 173 171 164 160
309 270 232 216 212 206 205 195 187 189 193 199 209 215 218 206 202 217 241 224 182 207 253 270 271 273 273 271 271 257 230 225 225 220 222 222 227 237 241 192 181 179 171 166
324 315 311 272 245 214 206 202 196 186 188 199 211 216 212 198 191 193 211 238 243 232 239 255 259 260 268 295 319 314 296 237 198 200 221 230 224 207 208 221 213 189 177 172
315 305 287 277 266 237 226 222 215 204 195 197 204 208 208 203 192 194 202 215 228 229 230 237 250 257 268 278 281 283 282 276 244 203 204 214 219 214 203 203 201 193 180 170